Time,TemperatureF,DewpointF,PressureIn,WindDirection,WindDirectionDegrees,WindSpeedMPH,WindSpeedGustMPH,Humidity,HourlyPrecipIn,Conditions,Clouds,dailyrainin,SoftwareType,DateUTC
2013-08-30 00:25:00,74.0,68.0,-100.00,SE,140,5.0,7.0,82,0.00,,,-99.99,,2013-08-30 04:25:00,
2013-08-30 00:54:00,74.0,68.0,-100.00,WNW,295,1.0,6.0,83,0.00,,,-99.99,,2013-08-30 04:54:00,
2013-08-30 01:23:00,74.0,68.0,-100.00,NW,310,1.0,3.0,83,0.00,,,-99.99,,2013-08-30 05:23:00,
2013-08-30 01:52:00,73.0,68.0,-100.00,SE,130,1.0,3.0,83,0.00,,,-99.99,,2013-08-30 05:52:00,
2013-08-30 02:22:00,73.0,69.0,-100.00,SE,140,1.0,4.0,86,0.00,,,-99.99,,2013-08-30 06:22:00,
2013-08-30 02:53:00,73.0,69.0,-100.00,ESE,115,2.0,6.0,88,0.00,,,-99.99,,2013-08-30 06:53:00,
2013-08-30 03:22:00,71.0,68.0,-100.00,East,85,4.0,6.0,91,0.00,,,-99.99,,2013-08-30 07:22:00,
2013-08-30 03:53:00,72.0,69.0,-100.00,SE,140,4.0,6.0,91,0.00,,,-99.99,,2013-08-30 07:53:00,
2013-08-30 04:22:00,73.0,68.0,-100.00,SE,130,1.0,2.0,86,0.00,,,-99.99,,2013-08-30 08:22:00,
2013-08-30 04:52:00,73.0,68.0,-100.00,WSW,245,1.0,4.0,84,0.00,,,-99.99,,2013-08-30 08:52:00,
2013-08-30 05:22:00,73.0,67.0,-100.00,South,170,2.0,4.0,84,1.10,,,-99.99,,2013-08-30 09:22:00,
2013-08-30 05:53:00,71.0,68.0,-100.00,SW,220,3.0,6.0,91,0.00,,,-99.99,,2013-08-30 09:53:00,
2013-08-30 06:23:00,71.0,68.0,-100.00,SW,225,2.0,6.0,91,0.00,,,-99.99,,2013-08-30 10:23:00,
2013-08-30 06:53:00,71.0,68.0,-100.00,SW,215,2.0,6.0,92,0.00,,,-99.99,,2013-08-30 10:53:00,
2013-08-30 07:22:00,70.0,68.0,-100.00,SW,225,2.0,6.0,93,0.00,,,-99.99,,2013-08-30 11:22:00,
2013-08-30 07:52:00,70.0,68.0,-100.00,West,275,4.0,7.0,93,0.00,,,-99.99,,2013-08-30 11:52:00,
2013-08-30 08:21:00,70.0,68.0,-100.00,SW,220,4.0,7.0,92,0.00,,,-99.99,,2013-08-30 12:21:00,
2013-08-30 08:52:00,71.0,69.0,-100.00,SW,230,4.0,7.0,90,0.00,,,-99.99,,2013-08-30 12:52:00,
2013-08-30 09:21:00,73.0,69.0,-100.00,West,270,4.0,9.0,89,0.00,,,-99.99,,2013-08-30 13:21:00,
2013-08-30 09:52:00,74.0,69.0,-100.00,WSW,255,4.0,9.0,84,0.00,,,-99.99,,2013-08-30 13:52:00,
2013-08-30 10:21:00,76.0,69.0,-100.00,WSW,250,5.0,9.0,80,0.00,,,-99.99,,2013-08-30 14:21:00,
2013-08-30 10:52:00,78.0,69.0,-100.00,South,185,9.0,13.0,74,0.00,,,-99.99,,2013-08-30 14:52:00,
2013-08-30 11:22:00,79.0,69.0,-100.00,South,185,9.0,12.0,71,0.00,,,-99.99,,2013-08-30 15:22:00,
2013-08-30 11:54:00,80.0,69.0,-100.00,SSW,210,11.0,14.0,69,0.00,,,-99.99,,2013-08-30 15:54:00,
2013-08-30 12:25:00,81.0,69.0,-100.00,SSW,200,12.0,16.0,67,0.00,,,-99.99,,2013-08-30 16:25:00,
2013-08-30 12:53:00,81.0,67.0,-100.00,SSW,195,13.0,17.0,61,1.10,,,-99.99,,2013-08-30 16:53:00,
2013-08-30 13:23:00,83.0,67.0,-100.00,SSW,195,12.0,19.0,59,0.00,,,-99.99,,2013-08-30 17:23:00,
2013-08-30 13:53:00,83.0,67.0,-100.00,SW,215,12.0,17.0,57,0.00,,,-99.99,,2013-08-30 17:53:00,
2013-08-30 14:22:00,83.0,67.0,-100.00,WSW,240,15.0,21.0,58,0.00,,,-99.99,,2013-08-30 18:22:00,
2013-08-30 14:52:00,85.0,67.0,-100.00,South,190,9.0,21.0,54,0.00,,,-99.99,,2013-08-30 18:52:00,
2013-08-30 15:22:00,85.0,65.0,-100.00,WSW,240,12.0,20.0,52,0.00,,,-99.99,,2013-08-30 19:22:00,
2013-08-30 15:53:00,85.0,65.0,-100.00,SW,215,16.0,22.0,51,0.00,,,-99.99,,2013-08-30 19:53:00,
2013-08-30 16:22:00,86.0,66.0,-100.00,SSW,210,14.0,21.0,51,0.00,,,-99.99,,2013-08-30 20:22:00,
2013-08-30 16:52:00,86.0,65.0,-100.00,SSW,195,17.0,24.0,49,0.00,,,-99.99,,2013-08-30 20:52:00,
2013-08-30 17:22:00,87.0,65.0,-100.00,SSW,205,13.0,24.0,49,0.00,,,-99.99,,2013-08-30 21:22:00,
2013-08-30 17:54:00,87.0,65.0,-100.00,SSW,195,12.0,18.0,49,0.00,,,-99.99,,2013-08-30 21:54:00,
2013-08-30 18:24:00,87.0,65.0,-100.00,SW,215,12.0,22.0,47,0.00,,,-99.99,,2013-08-30 22:24:00,
2013-08-30 18:54:00,86.0,64.0,-100.00,SW,220,16.0,21.0,48,0.00,,,-99.99,,2013-08-30 22:54:00,
2013-08-30 19:22:00,86.0,65.0,-100.00,SSW,210,14.0,21.0,49,0.00,,,-99.99,,2013-08-30 23:22:00,
2013-08-30 19:53:00,85.0,65.0,-100.00,SSW,205,11.0,19.0,51,0.00,,,-99.99,,2013-08-30 23:53:00,
2013-08-30 20:22:00,85.0,66.0,-100.00,SSW,200,11.0,14.0,54,0.00,,,-99.99,,2013-08-31 00:22:00,
2013-08-30 20:52:00,84.0,67.0,-100.00,SSW,205,9.0,17.0,55,0.00,,,-99.99,,2013-08-31 00:52:00,
2013-08-30 21:22:00,83.0,67.0,-100.00,SSW,205,11.0,17.0,58,0.00,,,-99.99,,2013-08-31 01:22:00,
2013-08-30 21:52:00,82.0,67.0,-100.00,South,190,8.0,16.0,60,0.00,,,-99.99,,2013-08-31 01:52:00,
2013-08-30 22:22:00,82.0,67.0,-100.00,South,185,5.0,9.0,61,0.00,,,-99.99,,2013-08-31 02:22:00,
2013-08-30 22:52:00,80.0,67.0,-100.00,South,175,6.0,11.0,64,0.00,,,-99.99,,2013-08-31 02:52:00,
2013-08-30 23:22:00,79.0,67.0,-100.00,South,175,7.0,11.0,66,0.00,,,-99.99,,2013-08-31 03:22:00,
2013-08-30 23:54:00,79.0,67.0,-100.00,South,170,5.0,11.0,69,0.00,,,-99.99,,2013-08-31 03:54:00,